Погода в Рингсакере

Норвегия     60°54′13″N   10°43′25″E
темп.,
°C
ветер,
м/с
пор.,
м/с
влажн.,
%
обл.,
%
осадки,
мм/ч
давл.,
гПа
погр.,
м
5 декабря, вс
вс501:00−10св1197100 0.3 101818
04:00−11св1197100 0.3 102015
07:00−11св1198100 0.4 102111
10:00−10вюв1293100 0.1 1024101
13:00−10вюв1289100 0.1 1025181
16:00−13св119792 0.0 102610
19:00−14св119740 0.0 102712
22:00−15св119776 0.0 102811
6 декабря, пн
пн601:00−15св119883 0.0 102711
04:00−15в119992 0.0 102614
07:00−14вюв1198100 0.1 102445
10:00−13юв1293100 0.1 1024168
13:00−12ююв129097 0.1 1022296
16:00−13вюв1298100 0.1 102156
19:00−13вюв1297100 0.3 102088
22:00−13вюв1397100 0.2 1019106
7 декабря, вт
вт701:00−13вюв1396100 0.4 1019130
04:00−13вюв119897 0.1 101855
07:00−13вюв1298100 0.3 101847
10:00−12юв1295100 0.1 1018120
13:00−11юв129198 0.3 1018204
16:00−13вюв1198100 0.2 101829
19:00−13в119892 0.3 101824
22:00−12в1197100 0.1 101829
8 декабря, ср
ср801:00−11вюв1196100 0.4 101868
04:00−11вюв119699 0.3 101852
07:00−11в1197100 0.4 101824
10:00−11вюв1196100 0.2 101955
13:00−9ююв019599 0.4 1019102
16:00−12св009882 0.1 102010
19:00−12с119885 0.3 102214
22:00−14ссз119885 0.1 102218
9 декабря, чт
чт901:00−13ссз239765 0.1 102347
04:00−15ссз119867 0.0 102326
07:00−16ссз129751 0.0 102425
10:00−16ссз119743 0.0 102428
13:00−13сз119321 0.0 102338
16:00−16с119895 0.0 102314
19:00−15с119889 0.0 102315
22:00−15с119894 0.0 102219